RSC81HM GCLP-GCXO

Flight info

Callsign RSC81HM
Flight time 0h 18m
Altitude 8000
Route TFN
Aircraft AT76/M-SDFGRY/LB1

Departure

Time 2026-04-17 10:15
Airport Gran Canaria Airport (GCLP)

Arrival

Time 2026-04-17 10:34
Airport Tenerife Norte-Ciudad de La Laguna Airport (GCXO)
Time Latitude Longitude Altitude Speed Heading
2026-04-17 09:58 27.94054 -15.38715 84 ft 0 kts 291°
2026-04-17 10:09 27.94051 -15.38708 83 ft 4 kts 292°
2026-04-17 10:09 27.94036 -15.38652 69 ft 7 kts 245°
2026-04-17 10:10 27.94023 -15.38650 70 ft 7 kts 198°
2026-04-17 10:10 27.93960 -15.38676 81 ft 12 kts 200°
2026-04-17 10:10 27.93868 -15.38716 81 ft 16 kts 201°
2026-04-17 10:11 27.93628 -15.38822 81 ft 20 kts 201°
2026-04-17 10:11 27.93492 -15.38876 79 ft 21 kts 198°
2026-04-17 10:11 27.93349 -15.38938 75 ft 22 kts 204°
2026-04-17 10:11 27.93206 -15.39002 73 ft 22 kts 201°
2026-04-17 10:12 27.93059 -15.39066 74 ft 23 kts 201°
2026-04-17 10:12 27.92916 -15.39127 86 ft 19 kts 189°
2026-04-17 10:12 27.92843 -15.39036 82 ft 16 kts 136°
2026-04-17 10:12 27.92733 -15.39059 85 ft 19 kts 201°
2026-04-17 10:13 27.92568 -15.39133 89 ft 27 kts 200°
2026-04-17 10:13 27.92401 -15.39206 93 ft 25 kts 202°
2026-04-17 10:13 27.92249 -15.39273 97 ft 23 kts 202°
2026-04-17 10:13 27.92086 -15.39302 90 ft 25 kts 175°
2026-04-17 10:14 27.91926 -15.39261 85 ft 16 kts 113°
2026-04-17 10:14 27.91981 -15.39192 85 ft 19 kts 21°
2026-04-17 10:14 27.92313 -15.39046 67 ft 82 kts 22°
2026-04-17 10:14 27.93001 -15.38745 123 ft 122 kts 21°
2026-04-17 10:15 27.93794 -15.38401 652 ft 123 kts 20°
2026-04-17 10:15 27.94635 -15.38072 1129 ft 133 kts 21°
2026-04-17 10:15 27.95549 -15.37731 1304 ft 148 kts 18°
2026-04-17 10:15 27.96544 -15.37320 1552 ft 160 kts 22°
2026-04-17 10:16 27.97623 -15.36823 1733 ft 171 kts 25°
2026-04-17 10:16 27.98716 -15.36313 2077 ft 173 kts 25°
2026-04-17 10:16 27.99847 -15.35805 2396 ft 177 kts 25°
2026-04-17 10:16 28.01008 -15.35295 2730 ft 180 kts 25°
2026-04-17 10:17 28.02199 -15.34787 3025 ft 185 kts 21°
2026-04-17 10:17 28.03489 -15.34826 3321 ft 195 kts 335°
2026-04-17 10:17 28.04520 -15.35809 3601 ft 196 kts 309°
2026-04-17 10:17 28.05315 -15.37058 3932 ft 195 kts 298°
2026-04-17 10:18 28.05953 -15.38402 4280 ft 193 kts 292°
2026-04-17 10:18 28.06512 -15.39787 4599 ft 193 kts 289°
2026-04-17 10:18 28.07054 -15.41186 4929 ft 194 kts 290°
2026-04-17 10:18 28.07613 -15.42575 5302 ft 193 kts 290°
2026-04-17 10:19 28.08214 -15.43942 5619 ft 195 kts 294°
2026-04-17 10:19 28.08907 -15.45256 5929 ft 197 kts 297°
2026-04-17 10:19 28.09652 -15.46560 6248 ft 197 kts 298°
2026-04-17 10:19 28.10402 -15.47863 6565 ft 197 kts 298°
2026-04-17 10:20 28.11150 -15.49173 6874 ft 198 kts 297°
2026-04-17 10:20 28.11896 -15.50485 7161 ft 198 kts 298°
2026-04-17 10:20 28.12637 -15.51804 7435 ft 199 kts 297°
2026-04-17 10:20 28.13375 -15.53131 7714 ft 199 kts 296°
2026-04-17 10:21 28.14114 -15.54468 7933 ft 204 kts 296°
2026-04-17 10:21 28.14882 -15.55883 7996 ft 217 kts 296°
2026-04-17 10:21 28.15691 -15.57391 8019 ft 229 kts 296°
2026-04-17 10:21 28.16529 -15.58922 8042 ft 226 kts 297°
2026-04-17 10:22 28.17355 -15.60415 8043 ft 222 kts 297°
2026-04-17 10:22 28.18188 -15.61939 8047 ft 233 kts 297°
2026-04-17 10:22 28.19046 -15.63505 8048 ft 241 kts 297°
2026-04-17 10:22 28.19948 -15.65135 8049 ft 247 kts 297°
2026-04-17 10:23 28.20871 -15.66801 8052 ft 251 kts 298°
2026-04-17 10:23 28.21806 -15.68494 8052 ft 255 kts 297°
2026-04-17 10:23 28.22747 -15.70206 8051 ft 257 kts 297°
2026-04-17 10:23 28.23694 -15.71933 8053 ft 259 kts 297°
2026-04-17 10:24 28.24648 -15.73673 8052 ft 260 kts 297°
2026-04-17 10:24 28.25601 -15.75416 8049 ft 260 kts 297°
2026-04-17 10:24 28.26561 -15.77168 8056 ft 261 kts 297°
2026-04-17 10:24 28.27510 -15.78901 8056 ft 262 kts 297°
2026-04-17 10:25 28.28476 -15.80667 8055 ft 263 kts 297°
2026-04-17 10:25 28.29442 -15.82432 8053 ft 263 kts 297°
2026-04-17 10:25 28.30410 -15.84199 8052 ft 263 kts 297°
2026-04-17 10:25 28.31377 -15.85967 8054 ft 263 kts 297°
2026-04-17 10:26 28.32343 -15.87733 8055 ft 263 kts 297°
2026-04-17 10:26 28.33309 -15.89501 8055 ft 264 kts 297°
2026-04-17 10:26 28.34227 -15.91288 8055 ft 259 kts 289°
2026-04-17 10:26 28.34641 -15.92542 8056 ft 255 kts 284°
2026-04-17 10:27 28.34964 -15.93594 8058 ft 256 kts 284°
2026-04-17 10:27 28.35544 -15.95506 7817 ft 264 kts 284°
2026-04-17 10:27 28.36146 -15.97480 7487 ft 264 kts 284°
2026-04-17 10:27 28.36762 -15.99443 7161 ft 264 kts 285°
2026-04-17 10:28 28.37398 -16.01396 6827 ft 264 kts 285°
2026-04-17 10:28 28.38051 -16.03343 6510 ft 263 kts 286°
2026-04-17 10:28 28.38707 -16.05284 6165 ft 263 kts 286°
2026-04-17 10:28 28.39354 -16.07225 5852 ft 261 kts 286°
2026-04-17 10:29 28.39775 -16.08495 5694 ft 258 kts 285°
2026-04-17 10:29 28.40399 -16.10394 5452 ft 255 kts 285°
2026-04-17 10:29 28.41019 -16.12276 5213 ft 253 kts 286°
2026-04-17 10:29 28.41835 -16.14747 4899 ft 251 kts 287°
2026-04-17 10:30 28.42251 -16.15998 4740 ft 250 kts 287°
2026-04-17 10:30 28.42844 -16.17749 4506 ft 222 kts 287°
2026-04-17 10:30 28.43367 -16.19322 4390 ft 210 kts 285°
2026-04-17 10:30 28.43853 -16.20866 4190 ft 213 kts 286°
2026-04-17 10:31 28.44378 -16.22433 3916 ft 206 kts 288°
2026-04-17 10:31 28.44875 -16.23884 3671 ft 188 kts 288°
2026-04-17 10:31 28.45305 -16.25204 3442 ft 170 kts 287°
2026-04-17 10:31 28.45691 -16.26401 3243 ft 151 kts 289°
2026-04-17 10:32 28.46033 -16.27444 3049 ft 132 kts 290°
2026-04-17 10:32 28.46359 -16.28443 2879 ft 140 kts 290°
2026-04-17 10:32 28.46707 -16.29486 2694 ft 143 kts 292°
2026-04-17 10:32 28.47070 -16.30546 2517 ft 143 kts 292°
2026-04-17 10:33 28.47418 -16.31605 2278 ft 143 kts 292°
2026-04-17 10:33 28.47757 -16.32623 2073 ft 132 kts 294°
2026-04-17 10:33 28.48056 -16.33520 2037 ft 108 kts 293°
2026-04-17 10:33 28.48248 -16.34063 2045 ft 54 kts 298°
2026-04-17 10:34 28.48394 -16.34229 2049 ft 23 kts 322°
2026-04-17 10:34 28.48477 -16.34256 2049 ft 10 kts 18°
2026-04-17 10:34 28.48499 -16.34247 2049 ft 0 kts 21°